Probability
0 0 0 0 0 0 0 0 0 0 0 0 0 0 0 0 0 0 0 0 0 0 0 0 0 0 0 0 0 0 0 0 1 2 2 1 0 0
0 0 0 0 0 0 0 0 0 0 0 0 0 0 0 0 0 0 0 0 0 0 0 0 0 0 0 0 0 0 0 0 0 1 1 0 0 0
0 0 0 0 0 0 0 0 0 0 0 0 0 0 0 0 0 0 0 0 0 0 0 0 0 0 0 0 0 0 0 0 0 0 0 0 1 1
0 0 0 0 0 0 0 0 0 0 0 0 0 0 0 0 0 0 0 0 0 0 0 0 0 0 0 0 0 0 0 0 0 0 0 1 2 2
0 0 0 0 0 0 0 0 0 0 0 0 0 0 0 0 0 0 0 0 0 0 0 0 0 0 0 0 0 0 0 0 0 0 0 1 2 2
0 0 0 0 0 0 0 0 0 0 0 0 0 0 0 0 0 0 0 0 0 0 0 0 0 0 0 0 0 0 0 0 0 0 0 0 1 1
0 0 0 0 0 0 0 0 0 0 0 0 0 0 0 0 0 0 0 0 0 0 0 0 0 0 0 0 0 0 0 0 0 0 0 0 0 0
0 0 0 0 0 0 0 0 0 0 0 0 0 0 0 0 0 0 0 0 0 0 0 0 0 0 0 0 0 0 0 0 0 0 0 0 0 0
0 0 0 0 0 0 0 0 0 0 0 0 0 0 0 0 0 0 0 0 0 0 0 0 0 0 0 0 0 0 0 0 0 0 0 0 0 0
0 0 0 0 0 0 0 0 0 0 0 0 0 0 0 0 0 0 0 0 0 0 0 0 0 0 0 0 0 0 0 0 0 0 0 0 0 0
0 0 0 0 0 0 0 0 0 0 0 0 0 0 0 0 0 0 0 0 0 0 0 0 0 0 0 0 0 0 0 0 0 0 0 0 0 0
0 0 0 0 0 0 0 0 0 0 0 0 0 0 0 0 0 0 0 0 0 0 0 0 0 0 0 0 0 0 0 0 0 0 0 0 0 0
0 0 0 0 0 0 0 0 0 0 0 0 0 0 0 0 0 0 0 0 0 0 0 0 0 0 0 0 0 0 0 0 0 0 0 0 0 0
0 0 0 0 0 0 0 0 0 0 0 0 0 0 0 0 0 0 0 0 0 0 0 0 0 0 0 0 0 0 0 0 0 0 0 0 0 0
0 0 0 0 0 0 0 0 0 0 0 0 0 0 0 0 0 0 0 0 0 0 0 0 0 0 0 0 0 0 0 0 0 0 0 0 0 0
0 0 0 0 0 0 0 0 0 0 0 0 0 0 0 0 0 0 0 0 0 0 0 0 0 0 0 0 0 0 0 0 0 0 0 0 0 0
0 0 0 0 0 0 0 0 0 0 0 0 0 0 0 0 0 0 0 0 0 0 0 0 0 0 0 0 0 0 0 0 0 0 0 0 0 0
0 0 0 0 0 0 0 0 0 0 0 0 0 0 0 0 0 0 0 0 0 0 0 0 0 0 0 0 0 0 0 0 0 0 0 0 0 0
0 0 0 0 0 0 0 0 0 0 0 0 0 0 0 0 0 0 0 0 0 0 0 0 0 0 0 0 0 0 0 0 0 0 0 0 0 0
0 0 0 0 0 0 0 0 0 0 0 0 0 0 0 0 0 0 0 0 0 0 0 0 0 0 0 0 0 0 0 0 0 0 0 0 0 0
0 0 0 0 0 0 0 0 0 0 0 0 0 0 0 0 0 0 0 0 0 0 0 0 0 0 0 0 0 0 0 0 0 0 0 0 0 0
0 0 0 0 0 0 0 0 0 0 0 0 0 0 0 0 0 0 0 0 0 0 0 0 0 0 0 0 0 0 0 0 0 0 0 0 0 0
0 0 0 0 0 0 0 0 0 0 0 0 0 0 0 0 0 0 0 0 0 0 0 0 0 0 0 0 0 0 0 0 0 0 0 0 0 0
Wind_Speed
4 4 4 3 3 2 2 2 4 2 3 4 3 4 4 3 6 5 5 10 11 11 12 12 12 12 13 12 12 11 11 10 9 8 7 7 7 7
3 5 4 3 3 3 3 2 3 3 2 2 2 3 4 5 8 5 5 11 11 11 11 11 11 11 11 11 11 11 11 11 10 10 9 8 7 7
4 5 4 3 3 3 3 4 3 3 3 1 2 3 4 5 6 5 5 5 5 11 12 12 12 11 11 11 11 10 11 11 11 11 11 10 9 9
4 4 4 4 4 4 4 4 3 2 3 1 2 3 4 4 4 5 5 5 4 10 12 12 12 12 12 11 11 10 10 10 10 11 12 12 12 11
3 4 3 4 4 3 4 4 3 3 2 2 2 2 2 3 4 4 5 4 5 8 10 11 12 12 12 12 11 11 10 10 10 10 11 12 12 12
3 3 3 4 3 3 3 3 3 3 3 2 2 2 2 3 3 3 4 4 4 6 7 8 10 11 12 12 12 12 11 11 11 11 11 11 12 13
3 3 2 4 5 3 3 2 3 3 2 2 2 2 3 3 3 2 3 4 4 3 4 5 5 4 6 9 11 13 12 11 11 12 12 12 13 13
3 2 2 3 5 6 6 5 4 3 2 1 1 1 2 2 2 2 2 3 4 3 3 4 3 4 4 3 9 12 13 13 12 13 13 13 13 14
2 1 1 2 3 3 4 5 4 4 2 3 1 2 2 2 1 2 2 2 3 4 2 4 4 4 4 5 11 11 12 13 14 15 15 14 14 14
2 2 2 1 1 2 2 3 2 2 1 0 2 3 3 2 2 2 2 2 3 3 0 2 3 4 5 4 9 10 11 12 13 15 15 14 14 14
0 1 2 2 2 3 3 1 2 3 3 2 2 2 4 5 3 1 2 2 3 3 1 1 3 4 4 4 5 9 11 12 13 14 15 15 14 13
0 0 2 2 2 2 2 2 1 3 3 4 4 5 4 4 5 1 1 1 2 3 2 1 2 3 4 3 3 4 6 9 12 13 14 14 13 8
2 1 2 2 1 1 2 2 3 3 2 2 2 3 3 3 3 2 1 2 2 3 3 1 2 2 3 5 4 4 4 5 5 7 10 13 13 10
3 2 3 3 2 2 2 3 4 2 0 1 2 2 3 3 3 3 3 3 4 5 5 3 2 3 3 5 6 4 4 5 5 5 5 9 10 12
3 5 5 4 3 2 4 4 3 1 0 1 2 3 3 3 3 3 3 3 4 4 4 3 4 3 3 5 6 5 6 5 4 5 5 5 6 6
3 3 4 4 3 3 3 3 2 2 2 3 3 3 3 2 2 2 2 3 3 4 5 4 4 4 4 6 6 7 6 5 5 6 6 6 6 6
2 1 1 1 2 2 2 2 2 2 2 3 3 3 3 3 3 2 2 2 2 4 5 4 4 4 6 6 7 7 7 7 7 6 6 8 7 6
4 2 3 3 4 4 4 3 3 3 4 4 3 4 4 4 4 3 2 3 4 5 5 4 4 4 4 5 8 8 7 7 7 7 6 8 11 8
4 4 5 5 5 5 5 4 4 5 4 4 4 4 4 4 4 4 4 4 4 5 5 4 3 3 7 11 8 7 7 7 7 7 7 8 11 10
4 5 6 5 5 5 5 5 5 4 4 4 4 5 4 4 4 5 4 5 5 5 5 4 4 5 7 10 10 8 8 8 7 9 9 9 9 12
6 6 6 6 5 6 6 5 5 5 5 4 4 5 5 5 5 5 5 7 6 5 7 7 7 9 6 5 8 9 7 9 11 10 10 11 12 10
6 6 6 6 6 5 5 5 5 5 5 5 5 5 5 5 6 7 6 6 6 6 8 8 6 5 4 7 11 12 12 9 10 16 17 16 11 11
7 6 6 6 6 5 5 6 7 6 6 5 5 5 5 5 5 5 6 6 6 7 7 7 6 5 6 8 10 11 14 13 10 10 10 14 19 22
Wind_Direction
63 64 59 42 45 52 75 115 128 98 14 343 350 343 354 12 15 20 23 28 31 31 32 34 35 33 30 28 23 20 16 13 8 2 356 350 345 341
61 65 55 40 46 46 57 66 95 126 111 325 324 324 350 15 19 18 19 23 24 24 26 28 29 28 24 22 19 16 13 9 5 2 358 351 344 337
57 67 57 49 55 44 51 61 65 95 112 330 328 340 7 10 2 5 11 12 8 17 22 22 20 19 19 19 17 16 13 10 8 3 356 349 341 334
69 67 53 61 52 44 54 59 62 79 114 76 344 353 2 357 359 5 8 12 7 12 18 18 18 17 15 13 11 11 10 6 3 0 355 350 345 337
91 84 71 73 63 54 60 59 53 59 73 86 3 343 344 353 359 357 1 354 2 11 13 13 12 11 10 9 7 4 3 0 355 352 349 346 344 339
83 87 86 90 99 88 75 70 71 61 54 60 25 351 341 336 6 356 349 345 345 358 3 4 4 8 5 4 3 1 359 357 354 351 349 345 342 339
69 71 78 89 95 103 101 96 84 74 60 53 22 0 344 350 347 332 340 326 324 344 346 347 349 353 354 355 357 356 356 355 355 351 345 341 338 336
93 64 54 65 76 82 90 91 98 103 105 91 27 344 309 306 310 331 339 353 330 325 346 326 342 337 331 341 349 351 354 354 353 348 341 335 333 330
126 115 81 74 79 83 66 57 48 55 103 154 162 248 267 275 307 329 327 317 282 293 339 318 326 323 318 336 343 348 349 347 346 343 341 337 333 329
138 150 142 137 138 119 88 50 21 2 346 133 190 233 243 254 231 241 268 294 291 293 317 295 309 307 312 314 328 338 340 337 335 334 334 332 329 326
134 152 151 161 185 135 109 74 355 328 321 334 318 316 321 322 323 353 345 354 322 307 311 265 294 304 301 298 314 330 332 328 325 327 328 327 324 323
108 249 189 189 205 163 145 151 285 293 313 331 340 337 332 328 333 302 206 269 292 298 293 299 297 324 314 295 303 313 316 315 316 317 321 320 318 318
187 232 254 238 218 199 183 196 242 268 290 308 318 320 325 324 316 301 229 197 224 258 267 249 277 289 271 292 296 290 294 299 303 305 311 311 309 307
202 220 240 253 254 256 245 259 274 296 300 314 313 307 308 304 297 295 285 257 233 244 262 241 242 260 279 290 293 292 290 285 283 289 294 302 302 301
217 225 233 246 258 272 279 282 289 271 241 265 270 269 264 268 282 296 299 292 286 274 275 253 243 257 251 269 283 286 297 292 273 283 288 288 287 293
231 249 252 251 249 262 281 289 264 228 219 232 250 261 271 278 275 272 280 292 301 298 291 276 259 252 266 267 273 284 285 283 290 290 288 286 282 274
198 213 249 261 265 271 272 266 258 256 247 242 247 260 267 267 269 267 260 270 273 284 296 295 283 266 253 263 278 278 281 283 283 287 290 291 286 276
180 205 226 232 238 245 251 259 256 250 247 244 245 247 254 258 266 267 257 260 273 277 281 286 300 310 304 274 241 265 274 278 284 283 276 285 289 283
197 221 228 232 237 238 238 239 245 247 242 240 245 248 250 254 258 265 265 267 271 273 275 276 279 286 299 300 285 242 263 281 286 286 277 275 283 286
215 226 233 236 236 237 238 240 245 250 246 244 246 248 247 248 255 260 261 261 269 276 280 275 263 260 268 283 289 283 256 263 279 286 288 283 277 276
225 232 234 235 237 238 239 240 241 243 244 240 243 245 245 245 252 256 257 262 265 271 276 276 267 266 268 279 284 284 273 253 258 274 287 291 293 291
228 231 235 236 237 237 238 239 243 245 245 243 242 244 244 242 249 254 255 260 263 265 271 277 281 281 271 275 283 289 292 290 275 273 272 269 276 282
230 232 235 235 236 236 238 242 243 245 243 242 243 244 244 246 248 251 256 259 265 272 279 285 287 279 275 274 281 287 292 296 296 295 287 277 271 271